Columbia, MO

9:36 PM CDT on September 22, 2017 (GMT -0500)
Columbia Regional

Weather History for KCOU - March, 2014

Change the Weather History Date:

Wednesday, March 12, 2014

  Actual Average Record
Temperature  
Mean Temperature 38 °F 43 °F  
Max Temperature 46 °F 54 °F 81 °F (1990)
Min Temperature 29 °F 33 °F -5 °F (1948)
Degree Days  
Heating Degree Days 27 22  
Month to date heating degree days 347 287  
Since 1 July heating degree days 4776 4233  
Cooling Degree Days 0 0  
Month to date cooling degree days 0 0  
Year to date cooling degree days 0 0  
Moisture  
Dew Point 29 °F    
Average Humidity 75    
Maximum Humidity 100    
Minimum Humidity 49    
Precipitation  
Precipitation 0.11 in 0.09 in 1.84 in (1972)
Month to date precipitation 0.55 1.03  
Year to date precipitation 2.81 5.20  
Snow  
Snow 0.10 in 0.10 in 5.20 in (1980)
Month to date snowfall 0.5 1.0  
Since 1 July snowfall 17.8 17.1  
Snow Depth 0.00 in    
Sea Level Pressure  
Sea Level Pressure 30.00 in    
Wind  
Wind Speed 15 mph (NNW)    
Max Wind Speed 31 mph    
Max Gust Speed 39 mph    
Visibility 8 miles    
Events Snow    
T = Trace of Precipitation, MM = Missing Value Source: NWS Daily Summary

Daily Weather History Graph

Daily Weather History Graph

Search for Another Location

Airport or City:

Trip Planner

Search our weather history database for the weather conditions in past years. The results will help you decide how hot, cold, wet, or windy it might be!

Date:

Astronomy

Mar. 12, 2014 Rise Set
Actual Time 7:24 AM CDT 7:12 PM CDT
Civil Twilight 6:58 AM CDT 7:39 PM CDT
Nautical Twilight 6:27 AM CDT 8:10 PM CDT
Astronomical Twilight 5:56 AM CDT 8:41 PM CDT
Moon 3:45 PM CDT (3/12) 4:54 AM CDT (3/12)
Length of Visible Light 12h 41m
Length of Day
11h 48m
Waxing Gibbous, 85% of the Moon is Illuminated
Mar 12
Waxing Gibbous
Mar 16
Full
Mar 23
Last Quarter
Mar 30
New
Apr 7
First Quarter

Hourly Weather History & Observations

Time (CDT) Temp. Windchill Dew Point Humidity Pressure Visibility Wind Dir Wind Speed Gust Speed Precip Events Conditions
12:54 AM 37.0 °F 25.1 °F 33.1 °F 86% 29.71 in 9.0 mi North 26.5 mph 39.1 mph 0.00 in Snow Light Snow
1:54 AM 34.0 °F 21.5 °F 32.0 °F 92% 29.78 in 3.0 mi NNW 24.2 mph 33.4 mph 0.00 in Snow Light Snow
1:56 AM 34.0 °F 21.8 °F 32.0 °F 92% 29.79 in 1.8 mi NNW 23.0 mph - 0.00 in Snow Light Snow
2:07 AM 34.0 °F 21.3 °F 32.0 °F 92% 29.79 in 2.0 mi NNW 25.3 mph 34.5 mph 0.02 in Snow Light Snow
2:23 AM 34.0 °F 21.5 °F 30.9 °F 89% 29.82 in 5.0 mi NNW 24.2 mph 32.2 mph 0.04 in Snow Light Snow
2:46 AM 34.0 °F 22.4 °F 30.9 °F 89% 29.84 in 1.8 mi NNW 20.7 mph 34.5 mph 0.05 in Snow Light Snow
2:54 AM 33.1 °F 21.5 °F 30.9 °F 92% 29.84 in 1.0 mi NNW 19.6 mph - 0.05 in Snow Light Snow
3:54 AM 33.1 °F 21.5 °F 32.0 °F 96% 29.87 in 1.0 mi NNW 19.6 mph - 0.05 in Snow Light Snow
4:01 AM 33.1 °F 21.2 °F 33.1 °F 100% 29.88 in 1.5 mi NNW 20.7 mph - 0.00 in Snow Light Snow
4:16 AM 33.1 °F 20.6 °F 33.1 °F 100% 29.89 in 3.0 mi NNW 23.0 mph 28.8 mph 0.00 in Snow Light Snow
4:27 AM 33.1 °F 21.2 °F 33.1 °F 100% 29.89 in 6.0 mi NNW 20.7 mph - 0.00 in Snow Light Snow
4:54 AM 34.0 °F 23.4 °F 33.1 °F 96% 29.90 in 10.0 mi NW 17.3 mph - 0.01 in   Overcast
5:36 AM 34.0 °F 23.0 °F 32.0 °F 92% 29.92 in 10.0 mi NW 18.4 mph - N/A   Mostly Cloudy
5:47 AM 34.0 °F 22.7 °F 32.0 °F 92% 29.92 in 10.0 mi NW 19.6 mph 28.8 mph N/A   Mostly Cloudy
5:54 AM 34.0 °F 22.7 °F 32.0 °F 92% 29.92 in 10.0 mi NW 19.6 mph 28.8 mph N/A   Mostly Cloudy
6:54 AM 33.1 °F 21.2 °F 28.9 °F 85% 29.95 in 10.0 mi NNW 20.7 mph 26.5 mph N/A   Clear
7:54 AM 32.0 °F 20.5 °F 27.0 °F 82% 30.00 in 10.0 mi NW 18.4 mph - N/A   Clear
8:54 AM 33.1 °F 20.1 °F 27.0 °F 78% 30.05 in 10.0 mi NW 25.3 mph 32.2 mph N/A   Clear
9:54 AM 34.0 °F 22.7 °F 27.0 °F 75% 30.09 in 10.0 mi NNW 19.6 mph 35.7 mph N/A   Clear
10:54 AM 36.0 °F 25.6 °F 28.0 °F 73% 30.11 in 10.0 mi NNW 18.4 mph - N/A   Clear
11:54 AM 37.9 °F 28.5 °F 26.1 °F 62% 30.12 in 10.0 mi NNW 17.3 mph - N/A   Clear
12:54 PM 41.0 °F 32.8 °F 28.0 °F 60% 30.12 in 10.0 mi NW 16.1 mph - N/A   Clear
1:54 PM 42.1 °F 33.1 °F 27.0 °F 55% 30.12 in 10.0 mi WNW 20.7 mph 29.9 mph N/A   Clear
2:54 PM 44.1 °F 36.2 °F 26.1 °F 49% 30.11 in 10.0 mi WNW 18.4 mph 29.9 mph N/A   Clear
3:54 PM 45.0 °F 37.6 °F 26.1 °F 48% 30.11 in 10.0 mi NW 17.3 mph 31.1 mph N/A   Clear
4:54 PM 45.0 °F 36.9 °F 27.0 °F 49% 30.11 in 10.0 mi NW 20.7 mph - N/A   Mostly Cloudy
5:54 PM 44.1 °F 37.7 °F 27.0 °F 51% 30.12 in 10.0 mi NW 12.7 mph - N/A   Mostly Cloudy
6:54 PM 43.0 °F 37.7 °F 28.0 °F 56% 30.14 in 10.0 mi NW 9.2 mph - N/A   Overcast
7:54 PM 39.0 °F 35.7 °F 27.0 °F 62% 30.14 in 10.0 mi NW 4.6 mph - N/A   Clear
8:54 PM 37.0 °F 33.3 °F 27.0 °F 67% 30.14 in 10.0 mi NNW 4.6 mph - N/A   Clear
9:54 PM 37.0 °F 34.5 °F 27.0 °F 67% 30.15 in 10.0 mi North 3.5 mph - N/A   Partly Cloudy
10:54 PM 34.0 °F 28.8 °F 27.0 °F 75% 30.17 in 10.0 mi NE 5.8 mph - N/A   Partly Cloudy
11:54 PM 34.0 °F 31.0 °F 26.1 °F 73% 30.16 in 10.0 mi ESE 3.5 mph - N/A   Clear